Location: Mountain Grove
(34.0887°N, 86.6172°W)
Time: 21:15:22
(UTC+00:00)

Cosmos 1455 - Pass Details

Date: 14 July 2020
Orbit: 500 x 521 km, 82.5° (Epoch: 08 August)

Event Time Altitude Azimuth Distance (km) Brightness Sun altitude
Rises 01:52:29 0° 349° (NNW) 2,650 6.6 -10.3°
Reaches altitude 10° 01:54:39 10° 345° (NNW) 1,760 5.7 -10.7°
Maximum altitude 01:58:27 59° 266° (W) 608 2.8 -11.3°
Drops below altitude 10° 02:02:14 10° 187° (S) 1,749 4.6 -11.9°
Enters shadow 02:03:42 - 184° (S) 2,353 5.2 -12.2°
